Weather in Izboishchi

Russia / Vologda Oblast     58°59′07″N   35°17′01″E
temp.,
°C
wind,
m/s
gust,
m/s
humid.,
%
clouds,
%
prec.,
mm/h
press.,
hPa
HPBL,
m
6 march, sat
sat600:00−12wnw239745 0.0 101486
03:00−11wnw249772 0.2 1015111
06:00−13wnw229780 0.1 101528
09:00−11wnw269578 0.1 1015216
12:00−7w358489 0.0 1015665
15:00−5wsw367894 0.1 10121000
18:00−7ssw398699 0.0 1009344
21:00−7ssw5138095 0.0 1005843
7 march, sun
sun700:00−6ssw61492100 0.6 9981147
03:00−4ssw61394100 2.1 9921035
06:00−3sw61295100 1.9 988948
09:00−5nw61094100 4.0 986796
12:00−4wnw2479100 0.6 987932
15:00−5nw4875100 1.4 9881235
18:00−8wnw41185100 0.4 990654
21:00−9wnw4119295 0.4 991438
8 march, mon
mon800:00−11wnw4119390 0.0 993409
03:00−9n4109495 0.4 996696
06:00−10n51192100 0.6 999691
09:00−12n4990100 0.7 1003617
12:00−10nnw4788100 0.1 1006613
15:00−9n4783100 0.1 1009765
18:00−12nnw3890100 0.0 1011411
21:00−17nnw289793 0.1 1014227
9 march, tue
tue900:00−22nnw239826 0.0 101668
03:00−24nnw239813 0.0 101847
06:00−25nnw22980 0.0 101933
09:00−23n13950 0.0 1020146
12:00−17n128136 0.0 1021407
15:00−14nne127417 0.0 1021572
18:00−18e11870 0.0 102120
21:00−20ese229314 0.0 102220
10 march, wed
wed1000:00−22ese22940 0.0 102320
03:00−24e23940 0.0 102332
06:00−25e23940 0.0 102334
09:00−22e25930 0.0 1024178
12:00−16e248522 0.0 1024314
15:00−14e358461 0.0 1024405
18:00−16e2294100 0.0 102347
21:00−20ese239784 0.0 102456